Time,TemperatureF,DewpointF,PressureIn,WindDirection,WindDirectionDegrees,WindSpeedMPH,WindSpeedGustMPH,Humidity,HourlyPrecipIn,Conditions,Clouds,dailyrainin,SoftwareType,DateUTC
2013-03-10 00:00:00,34.4,32.0,29.98,SE,126,2.3,2.3,91,0.02,RA,,0.00,WeatherDisplay:10.37,2013-03-10 05:00:00,
2013-03-10 00:01:00,34.4,32.0,29.98,SE,126,2.3,0.0,91,0.02,RA,,0.00,WeatherDisplay:10.37,2013-03-10 05:01:00,
2013-03-10 00:02:00,34.4,32.3,29.98,SE,125,1.1,1.2,92,0.02,RA,,0.00,WeatherDisplay:10.37,2013-03-10 05:02:00,
2013-03-10 00:07:00,34.4,32.3,29.98,SE,125,0.0,0.0,92,0.02,RA,,0.00,WeatherDisplay:10.37,2013-03-10 05:07:00,
2013-03-10 00:12:00,34.3,32.2,29.98,SE,126,1.1,0.0,92,0.02,CLR,,0.00,WeatherDisplay:10.37,2013-03-10 05:12:00,
2013-03-10 00:17:00,34.3,32.2,29.97,SE,126,1.1,1.1,92,0.01,CLR,,0.00,WeatherDisplay:10.37,2013-03-10 05:17:00,
2013-03-10 00:22:00,34.2,32.1,29.97,SE,126,0.0,0.0,92,0.01,CLR,,0.00,WeatherDisplay:10.37,2013-03-10 05:22:00,
2013-03-10 00:27:00,34.1,32.0,29.97,SE,125,0.0,0.0,92,0.00,CLR,,0.00,WeatherDisplay:10.37,2013-03-10 05:27:00,
2013-03-10 00:32:00,34.0,31.9,29.97,SE,126,0.0,0.0,92,0.00,CLR,,0.00,WeatherDisplay:10.37,2013-03-10 05:32:00,
2013-03-10 00:37:00,34.0,31.9,29.97,SE,125,1.1,0.0,92,0.00,CLR,,0.00,WeatherDisplay:10.37,2013-03-10 05:37:00,
2013-03-10 00:42:00,33.9,31.8,29.97,SE,125,0.0,0.0,92,0.00,CLR,,0.00,WeatherDisplay:10.37,2013-03-10 05:42:00,
2013-03-10 00:47:00,33.8,32.0,29.96,SE,126,0.0,0.0,93,0.00,CLR,,0.00,WeatherDisplay:10.37,2013-03-10 05:47:00,
2013-03-10 00:52:00,33.6,31.5,29.96,SE,126,0.0,0.0,92,0.00,CLR,,0.00,WeatherDisplay:10.37,2013-03-10 05:52:00,
2013-03-10 00:57:00,33.5,31.7,29.96,SE,125,0.0,0.0,93,0.00,CLR,,0.00,WeatherDisplay:10.37,2013-03-10 05:57:00,
2013-03-10 01:02:00,33.5,31.7,29.96,SE,125,0.0,0.0,93,0.00,CLR,,0.00,WeatherDisplay:10.37,2013-03-10 06:02:00,
2013-03-10 01:07:00,33.4,31.6,29.96,SE,126,0.0,0.0,93,0.00,CLR,,0.00,WeatherDisplay:10.37,2013-03-10 06:07:00,
2013-03-10 01:12:00,33.3,31.5,29.96,SE,126,1.1,0.0,93,0.00,CLR,,0.00,WeatherDisplay:10.37,2013-03-10 06:12:00,
2013-03-10 01:17:00,33.3,31.5,29.96,SE,126,0.0,0.0,93,0.00,CLR,,0.00,WeatherDisplay:10.37,2013-03-10 06:17:00,
2013-03-10 01:22:00,33.2,31.4,29.96,SE,125,0.0,0.0,93,0.00,CLR,,0.00,WeatherDisplay:10.37,2013-03-10 06:22:00,
2013-03-10 01:27:00,33.1,31.3,29.96,SE,126,0.0,0.0,93,0.00,CLR,,0.00,WeatherDisplay:10.37,2013-03-10 06:27:00,
2013-03-10 01:32:00,33.1,31.3,29.96,SE,126,0.0,0.0,93,0.00,CLR,,0.00,WeatherDisplay:10.37,2013-03-10 06:32:00,
2013-03-10 01:37:00,33.1,31.3,29.95,SE,126,0.0,0.0,93,0.00,CLR,,0.00,WeatherDisplay:10.37,2013-03-10 06:37:00,
2013-03-10 01:42:00,33.0,31.5,29.95,SE,126,0.0,0.0,94,0.00,CLR,,0.00,WeatherDisplay:10.37,2013-03-10 06:42:00,
2013-03-10 01:47:00,33.0,31.5,29.95,SE,126,2.3,2.3,94,0.00,CLR,,0.00,WeatherDisplay:10.37,2013-03-10 06:47:00,
2013-03-10 01:52:00,33.0,31.2,29.95,SE,125,0.0,0.5,93,0.00,CLR,,0.00,WeatherDisplay:10.37,2013-03-10 06:52:00,
2013-03-10 01:57:00,33.0,31.2,29.95,SE,125,0.0,0.0,93,0.00,CLR,,0.00,WeatherDisplay:10.37,2013-03-10 06:57:00,
2013-03-10 03:02:00,33.0,31.2,29.94,SE,126,0.0,0.0,93,0.00,CLR,,0.00,WeatherDisplay:10.37,2013-03-10 07:02:00,
2013-03-10 03:07:00,33.0,31.2,29.94,SE,126,1.0,1.0,93,0.00,CLR,,0.00,WeatherDisplay:10.37,2013-03-10 07:07:00,
2013-03-10 03:12:00,33.1,31.6,29.94,SE,125,0.0,0.0,94,0.00,CLR,,0.00,WeatherDisplay:10.37,2013-03-10 07:12:00,
2013-03-10 03:17:00,33.1,31.6,29.93,SE,125,2.3,2.3,94,0.00,CLR,,0.00,WeatherDisplay:10.37,2013-03-10 07:17:00,
2013-03-10 03:22:00,33.1,31.6,29.93,SE,125,2.3,0.0,94,0.00,CLR,,0.00,WeatherDisplay:10.37,2013-03-10 07:22:00,
2013-03-10 03:27:00,33.1,31.3,29.93,SE,125,3.5,3.5,93,0.00,CLR,,0.00,WeatherDisplay:10.37,2013-03-10 07:27:00,
2013-03-10 03:32:00,33.1,31.3,29.93,SE,125,0.0,0.0,93,0.00,CLR,,0.00,WeatherDisplay:10.37,2013-03-10 07:32:00,
2013-03-10 03:37:00,33.0,31.2,29.92,SE,125,0.0,0.0,93,0.00,CLR,,0.00,WeatherDisplay:10.37,2013-03-10 07:37:00,
2013-03-10 03:42:00,33.0,31.2,29.92,SE,125,0.0,0.0,93,0.00,CLR,,0.00,WeatherDisplay:10.37,2013-03-10 07:42:00,
2013-03-10 03:47:00,33.0,31.2,29.92,SE,125,0.0,0.0,93,0.00,CLR,,0.00,WeatherDisplay:10.37,2013-03-10 07:47:00,
2013-03-10 03:52:00,33.0,31.2,29.92,SE,125,0.0,0.0,93,0.00,CLR,,0.00,WeatherDisplay:10.37,2013-03-10 07:52:00,
2013-03-10 03:57:00,33.0,31.5,29.91,SE,125,0.0,0.0,94,0.00,CLR,,0.00,WeatherDisplay:10.37,2013-03-10 07:57:00,
2013-03-10 04:02:00,33.0,31.2,29.91,SE,125,0.0,0.0,93,0.00,CLR,,0.00,WeatherDisplay:10.37,2013-03-10 08:02:00,
2013-03-10 04:07:00,33.0,31.2,29.91,SE,125,0.0,0.0,93,0.00,CLR,,0.00,WeatherDisplay:10.37,2013-03-10 08:07:00,
2013-03-10 04:12:00,32.9,31.1,29.91,SE,125,0.0,0.0,93,0.00,CLR,,0.00,WeatherDisplay:10.37,2013-03-10 08:12:00,
2013-03-10 04:17:00,32.9,31.4,29.90,SE,125,1.1,0.0,94,0.00,CLR,,0.00,WeatherDisplay:10.37,2013-03-10 08:17:00,
2013-03-10 04:22:00,32.9,31.4,29.90,SE,125,1.1,0.0,94,0.00,CLR,,0.00,WeatherDisplay:10.37,2013-03-10 08:22:00,
2013-03-10 04:27:00,33.0,31.5,29.90,SE,125,0.0,0.0,94,0.00,CLR,,0.00,WeatherDisplay:10.37,2013-03-10 08:27:00,
2013-03-10 04:32:00,33.0,31.5,29.89,SE,125,0.0,0.0,94,0.00,CLR,,0.00,WeatherDisplay:10.37,2013-03-10 08:32:00,
2013-03-10 04:37:00,33.0,31.5,29.89,SE,125,0.0,0.0,94,0.00,CLR,,0.00,WeatherDisplay:10.37,2013-03-10 08:37:00,
2013-03-10 04:42:00,32.9,31.4,29.89,SE,125,0.0,0.0,94,0.00,CLR,,0.00,WeatherDisplay:10.37,2013-03-10 08:42:00,
2013-03-10 04:47:00,32.9,31.4,29.89,SE,125,0.0,0.1,94,0.00,CLR,,0.00,WeatherDisplay:10.37,2013-03-10 08:47:00,
2013-03-10 04:52:00,32.9,31.4,29.89,SE,125,0.0,0.0,94,0.00,CLR,,0.00,WeatherDisplay:10.37,2013-03-10 08:52:00,
2013-03-10 04:57:00,32.9,31.4,29.89,SE,125,0.0,0.0,94,0.00,CLR,,0.00,WeatherDisplay:10.37,2013-03-10 08:57:00,
2013-03-10 05:02:00,32.9,31.4,29.89,SE,125,0.0,0.0,94,0.00,CLR,,0.00,WeatherDisplay:10.37,2013-03-10 09:02:00,
2013-03-10 05:07:00,32.9,31.4,29.89,SE,125,0.0,0.0,94,0.00,CLR,,0.00,WeatherDisplay:10.37,2013-03-10 09:07:00,
2013-03-10 05:12:00,32.9,31.4,29.89,North,0,255.3,0.0,94,0.00,,,0.00,WeatherDisplay:10.37,2013-03-10 09:12:00,
2013-03-10 05:17:00,32.9,31.4,29.89,North,0,255.3,0.0,94,0.00,CLR,,0.00,WeatherDisplay:10.37,2013-03-10 09:17:00,
2013-03-10 05:22:00,32.9,31.4,29.88,North,0,255.3,0.0,94,0.00,CLR,,0.00,WeatherDisplay:10.37,2013-03-10 09:22:00,
2013-03-10 05:27:00,32.9,31.4,29.88,North,0,255.3,0.0,94,0.00,CLR,,0.00,WeatherDisplay:10.37,2013-03-10 09:27:00,
2013-03-10 05:32:00,32.9,31.4,29.88,North,0,255.3,0.0,94,0.00,CLR,,0.00,WeatherDisplay:10.37,2013-03-10 09:32:00,
2013-03-10 05:37:00,32.9,31.4,29.88,North,0,255.3,0.0,94,0.00,CLR,,0.00,WeatherDisplay:10.37,2013-03-10 09:37:00,
2013-03-10 05:42:00,32.9,31.4,29.88,North,0,255.3,0.0,94,0.00,CLR,,0.00,WeatherDisplay:10.37,2013-03-10 09:42:00,
2013-03-10 05:47:00,32.9,31.4,29.87,North,0,255.3,0.0,94,0.00,CLR,,0.00,WeatherDisplay:10.37,2013-03-10 09:47:00,
2013-03-10 05:52:00,32.9,31.4,29.87,North,0,255.3,0.0,94,0.00,CLR,,0.00,WeatherDisplay:10.37,2013-03-10 09:52:00,
2013-03-10 05:57:00,32.9,31.4,29.87,North,0,255.3,0.0,94,0.00,CLR,,0.00,WeatherDisplay:10.37,2013-03-10 09:57:00,
2013-03-10 06:02:00,32.9,31.4,29.87,North,0,255.3,0.0,94,0.00,CLR,,0.00,WeatherDisplay:10.37,2013-03-10 10:02:00,
2013-03-10 06:07:00,32.9,31.4,29.86,North,0,255.3,0.0,94,0.00,CLR,,0.00,WeatherDisplay:10.37,2013-03-10 10:07:00,
2013-03-10 06:12:00,32.9,31.4,29.86,North,0,255.3,0.0,94,0.00,CLR,,0.00,WeatherDisplay:10.37,2013-03-10 10:12:00,
2013-03-10 06:17:00,32.9,31.4,29.86,North,0,255.3,0.0,94,0.00,CLR,,0.00,WeatherDisplay:10.37,2013-03-10 10:17:00,
2013-03-10 06:23:00,32.9,31.4,29.86,North,0,255.3,0.0,94,0.00,CLR,,0.00,WeatherDisplay:10.37,2013-03-10 10:23:00,
2013-03-10 06:28:00,32.9,31.4,29.86,North,0,255.3,0.0,94,0.00,CLR,,0.00,WeatherDisplay:10.37,2013-03-10 10:28:00,
2013-03-10 06:33:00,32.9,31.4,29.86,North,0,255.3,0.0,94,0.00,CLR,,0.00,WeatherDisplay:10.37,2013-03-10 10:33:00,
2013-03-10 06:38:00,32.9,31.4,29.86,North,0,255.3,0.0,94,0.00,CLR,,0.00,WeatherDisplay:10.37,2013-03-10 10:38:00,
2013-03-10 06:43:00,32.9,31.4,29.86,North,0,255.3,0.0,94,0.00,CLR,,0.00,WeatherDisplay:10.37,2013-03-10 10:43:00,
2013-03-10 06:48:00,32.9,31.4,29.86,North,0,255.3,0.0,94,0.00,CLR,,0.00,WeatherDisplay:10.37,2013-03-10 10:48:00,
2013-03-10 06:53:00,32.9,31.4,29.86,North,0,255.3,0.0,94,0.00,CLR,,0.00,WeatherDisplay:10.37,2013-03-10 10:53:00,
2013-03-10 06:58:00,32.9,31.4,29.86,North,0,255.3,0.0,94,0.00,CLR,,0.00,WeatherDisplay:10.37,2013-03-10 10:58:00,
2013-03-10 07:03:00,32.9,31.4,29.86,North,0,255.3,0.0,94,0.00,CLR,,0.00,WeatherDisplay:10.37,2013-03-10 11:03:00,
2013-03-10 07:08:00,32.9,31.4,29.86,North,0,255.3,0.0,94,0.00,CLR,,0.00,WeatherDisplay:10.37,2013-03-10 11:08:00,
2013-03-10 07:13:00,32.9,31.4,29.86,North,0,255.3,0.0,94,0.00,CLR,,0.00,WeatherDisplay:10.37,2013-03-10 11:13:00,
2013-03-10 07:18:00,32.9,31.4,29.86,North,0,255.3,0.0,94,0.00,CLR,,0.00,WeatherDisplay:10.37,2013-03-10 11:18:00,
2013-03-10 07:23:00,32.9,31.4,29.86,North,0,255.3,0.0,94,0.00,CLR,,0.00,WeatherDisplay:10.37,2013-03-10 11:23:00,
2013-03-10 07:28:00,32.9,31.4,29.87,North,0,255.3,0.0,94,0.00,CLR,,0.00,WeatherDisplay:10.37,2013-03-10 11:28:00,
2013-03-10 07:33:00,32.9,31.4,29.87,North,0,255.3,0.0,94,0.00,CLR,,0.00,WeatherDisplay:10.37,2013-03-10 11:33:00,
2013-03-10 07:38:00,32.9,31.4,29.87,North,0,255.3,0.0,94,0.00,CLR,,0.00,WeatherDisplay:10.37,2013-03-10 11:38:00,
2013-03-10 07:43:00,32.9,31.4,29.86,North,0,255.3,0.0,94,0.00,CLR,,0.00,WeatherDisplay:10.37,2013-03-10 11:43:00,
2013-03-10 07:48:00,32.9,31.4,29.86,North,0,255.3,0.0,94,0.00,CLR,,0.00,WeatherDisplay:10.37,2013-03-10 11:48:00,
2013-03-10 07:53:00,32.9,31.4,29.86,North,0,255.3,0.0,94,0.00,CLR,,0.00,WeatherDisplay:10.37,2013-03-10 11:53:00,
2013-03-10 07:58:00,32.9,31.4,29.87,North,0,255.3,0.0,94,0.00,CLR,,0.00,WeatherDisplay:10.37,2013-03-10 11:58:00,
2013-03-10 08:03:00,32.9,31.4,29.87,North,0,255.3,0.0,94,0.00,CLR,,0.00,WeatherDisplay:10.37,2013-03-10 12:03:00,
2013-03-10 08:08:00,32.9,31.4,29.86,North,0,255.3,0.0,94,0.00,CLR,,0.00,WeatherDisplay:10.37,2013-03-10 12:08:00,
2013-03-10 08:13:00,32.9,31.4,29.86,North,0,255.3,0.0,94,0.00,CLR,,0.00,WeatherDisplay:10.37,2013-03-10 12:13:00,
2013-03-10 08:18:00,32.9,31.4,29.86,North,0,255.3,0.0,94,0.00,CLR,,0.00,WeatherDisplay:10.37,2013-03-10 12:18:00,
2013-03-10 08:23:00,32.9,31.4,29.85,North,0,255.3,0.0,94,0.00,CLR,,0.00,WeatherDisplay:10.37,2013-03-10 12:23:00,
2013-03-10 08:28:00,32.9,31.4,29.85,North,0,255.3,0.0,94,0.00,CLR,,0.00,WeatherDisplay:10.37,2013-03-10 12:28:00,
2013-03-10 08:33:00,32.9,31.4,29.86,North,0,255.3,0.0,94,0.00,CLR,,0.00,WeatherDisplay:10.37,2013-03-10 12:33:00,
2013-03-10 08:38:00,32.9,31.4,29.86,North,0,255.3,0.0,94,0.00,CLR,,0.00,WeatherDisplay:10.37,2013-03-10 12:38:00,
2013-03-10 08:43:00,32.9,31.4,29.86,North,0,255.3,0.0,94,0.00,CLR,,0.00,WeatherDisplay:10.37,2013-03-10 12:43:00,
2013-03-10 08:48:00,32.9,31.4,29.87,North,0,255.3,0.0,94,0.00,CLR,,0.00,WeatherDisplay:10.37,2013-03-10 12:48:00,
2013-03-10 08:53:00,32.9,31.4,29.87,North,0,255.3,0.0,94,0.00,CLR,,0.00,WeatherDisplay:10.37,2013-03-10 12:53:00,
2013-03-10 08:58:00,32.9,31.4,29.88,North,0,255.3,0.0,94,0.00,CLR,,0.00,WeatherDisplay:10.37,2013-03-10 12:58:00,
2013-03-10 09:03:00,32.9,31.4,29.87,North,0,255.3,0.0,94,0.00,CLR,,0.00,WeatherDisplay:10.37,2013-03-10 13:03:00,
2013-03-10 09:08:00,32.9,31.4,29.87,North,0,255.3,0.0,94,0.00,CLR,,0.00,WeatherDisplay:10.37,2013-03-10 13:08:00,
2013-03-10 09:13:00,32.9,31.4,29.87,North,0,255.3,0.0,94,0.00,CLR,,0.00,WeatherDisplay:10.37,2013-03-10 13:13:00,
2013-03-10 09:18:00,32.9,31.4,29.87,North,0,255.3,0.0,94,0.00,CLR,,0.00,WeatherDisplay:10.37,2013-03-10 13:18:00,
2013-03-10 09:23:00,32.9,31.4,29.88,North,0,255.3,0.0,94,0.00,CLR,,0.00,WeatherDisplay:10.37,2013-03-10 13:23:00,
2013-03-10 09:28:00,32.9,31.4,29.88,North,0,255.3,0.0,94,0.00,CLR,,0.00,WeatherDisplay:10.37,2013-03-10 13:28:00,
2013-03-10 09:33:00,32.9,31.4,29.88,North,0,255.3,0.0,94,0.00,CLR,,0.00,WeatherDisplay:10.37,2013-03-10 13:33:00,
2013-03-10 09:38:00,32.9,31.4,29.88,North,0,255.3,0.0,94,0.00,CLR,,0.00,WeatherDisplay:10.37,2013-03-10 13:38:00,
2013-03-10 09:43:00,32.9,31.4,29.87,North,0,255.3,0.0,94,0.00,CLR,,0.00,WeatherDisplay:10.37,2013-03-10 13:43:00,
2013-03-10 09:48:00,32.9,31.4,29.86,North,0,255.3,0.0,94,0.00,CLR,,0.00,WeatherDisplay:10.37,2013-03-10 13:48:00,
2013-03-10 09:53:00,32.9,31.4,29.85,North,0,255.3,0.0,94,0.00,CLR,,0.00,WeatherDisplay:10.37,2013-03-10 13:53:00,
2013-03-10 09:58:00,32.9,31.4,29.85,North,0,255.3,0.0,94,0.00,CLR,,0.00,WeatherDisplay:10.37,2013-03-10 13:58:00,
2013-03-10 10:03:00,32.9,31.4,29.85,North,0,255.3,0.0,94,0.00,CLR,,0.00,WeatherDisplay:10.37,2013-03-10 14:03:00,
2013-03-10 10:08:00,32.9,31.4,29.85,North,0,255.3,0.0,94,0.00,CLR,,0.00,WeatherDisplay:10.37,2013-03-10 14:08:00,
2013-03-10 10:13:00,32.9,31.4,29.85,North,0,255.3,0.0,94,0.00,CLR,,0.00,WeatherDisplay:10.37,2013-03-10 14:13:00,
2013-03-10 10:18:00,32.9,31.4,29.85,North,0,255.3,0.0,94,0.00,CLR,,0.00,WeatherDisplay:10.37,2013-03-10 14:18:00,
2013-03-10 10:23:00,32.9,31.4,29.85,North,0,255.3,0.0,94,0.00,CLR,,0.00,WeatherDisplay:10.37,2013-03-10 14:23:00,
2013-03-10 10:28:00,32.9,31.4,29.85,North,0,255.3,0.0,94,0.00,CLR,,0.00,WeatherDisplay:10.37,2013-03-10 14:28:00,
2013-03-10 10:33:00,32.9,31.4,29.84,North,0,255.3,0.0,94,0.00,CLR,,0.00,WeatherDisplay:10.37,2013-03-10 14:33:00,
2013-03-10 10:38:00,32.9,31.4,29.84,North,0,255.3,0.0,94,0.00,CLR,,0.00,WeatherDisplay:10.37,2013-03-10 14:38:00,
2013-03-10 10:43:00,32.9,31.4,29.84,North,0,255.3,0.0,94,0.00,CLR,,0.00,WeatherDisplay:10.37,2013-03-10 14:43:00,
2013-03-10 10:48:00,32.9,31.4,29.84,North,0,255.3,0.0,94,0.00,CLR,,0.00,WeatherDisplay:10.37,2013-03-10 14:48:00,
2013-03-10 10:53:00,32.9,31.4,29.84,North,0,255.3,0.0,94,0.00,CLR,,0.00,WeatherDisplay:10.37,2013-03-10 14:53:00,
2013-03-10 10:58:00,32.9,31.4,29.84,North,0,255.3,0.0,94,0.00,CLR,,0.00,WeatherDisplay:10.37,2013-03-10 14:58:00,
2013-03-10 11:03:00,32.9,31.4,29.84,North,0,255.3,0.0,94,0.00,CLR,,0.00,WeatherDisplay:10.37,2013-03-10 15:03:00,
2013-03-10 11:08:00,32.9,31.4,29.83,North,0,255.3,0.0,94,0.00,CLR,,0.00,WeatherDisplay:10.37,2013-03-10 15:08:00,
2013-03-10 11:13:00,32.9,31.4,29.83,North,0,255.3,0.0,94,0.00,CLR,,0.00,WeatherDisplay:10.37,2013-03-10 15:13:00,
2013-03-10 11:18:00,32.9,31.4,29.83,North,0,255.3,0.0,94,0.00,CLR,,0.00,WeatherDisplay:10.37,2013-03-10 15:18:00,
2013-03-10 11:23:00,32.9,31.4,29.83,North,0,255.3,0.0,94,0.00,CLR,,0.00,WeatherDisplay:10.37,2013-03-10 15:23:00,
2013-03-10 11:28:00,32.9,31.4,29.84,North,0,255.3,0.0,94,0.00,CLR,,0.00,WeatherDisplay:10.37,2013-03-10 15:28:00,
2013-03-10 11:33:00,32.9,31.4,29.83,North,0,255.3,0.0,94,0.00,CLR,,0.00,WeatherDisplay:10.37,2013-03-10 15:33:00,
2013-03-10 11:38:00,32.9,31.4,29.84,North,0,255.3,0.0,94,0.00,CLR,,0.00,WeatherDisplay:10.37,2013-03-10 15:38:00,
2013-03-10 11:44:00,32.9,31.4,29.84,North,0,255.3,0.0,94,0.00,CLR,,0.00,WeatherDisplay:10.37,2013-03-10 15:44:00,
2013-03-10 11:49:00,32.9,31.4,29.83,North,0,255.3,0.0,94,0.00,CLR,,0.00,WeatherDisplay:10.37,2013-03-10 15:49:00,
2013-03-10 11:54:00,32.9,31.4,29.83,North,0,255.3,0.0,94,0.00,CLR,,0.00,WeatherDisplay:10.37,2013-03-10 15:54:00,
2013-03-10 11:59:00,32.9,31.4,29.83,North,0,255.3,0.0,94,0.00,CLR,,0.00,WeatherDisplay:10.37,2013-03-10 15:59:00,
2013-03-10 12:04:00,32.9,31.4,29.84,North,0,255.3,0.0,94,0.00,CLR,,0.00,WeatherDisplay:10.37,2013-03-10 16:04:00,
2013-03-10 12:09:00,32.9,31.4,29.84,North,0,255.3,0.0,94,0.00,CLR,,0.00,WeatherDisplay:10.37,2013-03-10 16:09:00,
2013-03-10 12:14:00,32.9,31.4,29.84,North,0,255.3,0.0,94,0.00,CLR,,0.00,WeatherDisplay:10.37,2013-03-10 16:14:00,
2013-03-10 12:19:00,32.9,31.4,29.84,North,0,255.3,0.0,94,0.00,CLR,,0.00,WeatherDisplay:10.37,2013-03-10 16:19:00,
2013-03-10 12:24:00,32.9,31.4,29.84,North,0,255.3,0.0,94,0.00,CLR,,0.00,WeatherDisplay:10.37,2013-03-10 16:24:00,
2013-03-10 12:29:00,32.9,31.4,29.84,North,0,255.3,0.0,94,0.00,CLR,,0.00,WeatherDisplay:10.37,2013-03-10 16:29:00,
2013-03-10 12:34:00,32.9,31.4,29.84,North,0,255.3,0.0,94,0.00,CLR,,0.00,WeatherDisplay:10.37,2013-03-10 16:34:00,
2013-03-10 12:39:00,32.9,31.4,29.84,North,0,255.3,0.0,94,0.00,CLR,,0.00,WeatherDisplay:10.37,2013-03-10 16:39:00,
2013-03-10 12:44:00,32.9,31.4,29.83,North,0,255.3,0.0,94,0.00,CLR,,0.00,WeatherDisplay:10.37,2013-03-10 16:44:00,
2013-03-10 12:49:00,32.9,31.4,29.84,North,0,255.3,0.0,94,0.00,CLR,,0.00,WeatherDisplay:10.37,2013-03-10 16:49:00,
2013-03-10 12:54:00,32.9,31.4,29.84,North,0,255.3,0.0,94,0.00,CLR,,0.00,WeatherDisplay:10.37,2013-03-10 16:54:00,
2013-03-10 12:59:00,32.9,31.4,29.84,North,0,255.3,0.0,94,0.00,CLR,,0.00,WeatherDisplay:10.37,2013-03-10 16:59:00,
2013-03-10 13:04:00,32.9,31.4,29.85,North,0,255.3,0.0,94,0.00,CLR,,0.00,WeatherDisplay:10.37,2013-03-10 17:04:00,
2013-03-10 13:09:00,32.9,31.4,29.85,North,0,255.3,0.0,94,0.00,CLR,,0.00,WeatherDisplay:10.37,2013-03-10 17:09:00,
2013-03-10 13:14:00,32.9,31.4,29.84,North,0,255.3,0.0,94,0.00,CLR,,0.00,WeatherDisplay:10.37,2013-03-10 17:14:00,
2013-03-10 13:19:00,32.9,31.4,29.85,North,0,255.3,0.0,94,0.00,CLR,,0.00,WeatherDisplay:10.37,2013-03-10 17:19:00,
2013-03-10 13:24:00,32.9,31.4,29.85,North,0,255.3,0.0,94,0.00,CLR,,0.00,WeatherDisplay:10.37,2013-03-10 17:24:00,
2013-03-10 13:29:00,32.9,31.4,29.85,North,0,255.3,0.0,94,0.00,CLR,,0.00,WeatherDisplay:10.37,2013-03-10 17:29:00,
2013-03-10 13:34:00,32.9,31.4,29.85,North,0,255.3,0.0,94,0.00,CLR,,0.00,WeatherDisplay:10.37,2013-03-10 17:34:00,
2013-03-10 13:39:00,32.9,31.4,29.84,North,0,255.3,0.0,94,0.00,CLR,,0.00,WeatherDisplay:10.37,2013-03-10 17:39:00,
2013-03-10 13:44:00,32.9,31.4,29.84,North,0,255.3,0.0,94,0.00,CLR,,0.00,WeatherDisplay:10.37,2013-03-10 17:44:00,
2013-03-10 13:49:00,32.9,31.4,29.85,North,0,255.3,0.0,94,0.00,CLR,,0.00,WeatherDisplay:10.37,2013-03-10 17:49:00,
2013-03-10 13:54:00,32.9,31.4,29.85,North,0,255.3,0.0,94,0.00,CLR,,0.00,WeatherDisplay:10.37,2013-03-10 17:54:00,
2013-03-10 13:59:00,32.9,31.4,29.85,North,0,255.3,0.0,94,0.00,CLR,,0.00,WeatherDisplay:10.37,2013-03-10 17:59:00,
2013-03-10 14:04:00,32.9,31.4,29.85,North,0,255.3,0.0,94,0.00,CLR,,0.00,WeatherDisplay:10.37,2013-03-10 18:04:00,
2013-03-10 14:09:00,32.9,31.4,29.85,North,0,255.3,0.0,94,0.00,CLR,,0.00,WeatherDisplay:10.37,2013-03-10 18:09:00,
2013-03-10 14:14:00,32.9,31.4,29.85,North,0,255.3,0.0,94,0.00,CLR,,0.00,WeatherDisplay:10.37,2013-03-10 18:14:00,
2013-03-10 14:19:00,32.9,31.4,29.85,North,0,255.3,0.0,94,0.00,CLR,,0.00,WeatherDisplay:10.37,2013-03-10 18:19:00,
2013-03-10 14:24:00,32.9,31.4,29.85,North,0,255.3,0.0,94,0.00,CLR,,0.00,WeatherDisplay:10.37,2013-03-10 18:24:00,
2013-03-10 14:29:00,32.9,31.4,29.84,North,0,255.3,0.0,94,0.00,CLR,,0.00,WeatherDisplay:10.37,2013-03-10 18:29:00,
2013-03-10 14:34:00,32.9,31.4,29.84,North,0,255.3,0.0,94,0.00,CLR,,0.00,WeatherDisplay:10.37,2013-03-10 18:34:00,
2013-03-10 14:39:00,32.9,31.4,29.84,North,0,255.3,0.0,94,0.00,CLR,,0.00,WeatherDisplay:10.37,2013-03-10 18:39:00,
2013-03-10 14:44:00,32.9,31.4,29.84,North,0,255.3,0.0,94,0.00,CLR,,0.00,WeatherDisplay:10.37,2013-03-10 18:44:00,
2013-03-10 14:49:00,32.9,31.4,29.84,North,0,255.3,0.0,94,0.00,CLR,,0.00,WeatherDisplay:10.37,2013-03-10 18:49:00,
2013-03-10 14:54:00,32.9,31.4,29.83,North,0,255.3,0.0,94,0.00,CLR,,0.00,WeatherDisplay:10.37,2013-03-10 18:54:00,
2013-03-10 14:59:00,32.9,31.4,29.83,North,0,255.3,0.0,94,0.00,CLR,,0.00,WeatherDisplay:10.37,2013-03-10 18:59:00,
2013-03-10 15:04:00,32.9,31.4,29.82,North,0,255.3,0.0,94,0.00,CLR,,0.00,WeatherDisplay:10.37,2013-03-10 19:04:00,
2013-03-10 15:09:00,32.9,31.4,29.83,North,0,255.3,0.0,94,0.00,CLR,,0.00,WeatherDisplay:10.37,2013-03-10 19:09:00,
2013-03-10 15:14:00,32.9,31.4,29.83,North,0,255.3,0.0,94,0.00,CLR,,0.00,WeatherDisplay:10.37,2013-03-10 19:14:00,
2013-03-10 15:19:00,32.9,31.4,29.82,North,0,255.3,0.0,94,0.00,CLR,,0.00,WeatherDisplay:10.37,2013-03-10 19:19:00,
2013-03-10 15:24:00,32.9,31.4,29.83,North,0,255.3,0.0,94,0.00,CLR,,0.00,WeatherDisplay:10.37,2013-03-10 19:24:00,
2013-03-10 15:29:00,32.9,31.4,29.84,North,0,255.3,0.0,94,0.00,CLR,,0.00,WeatherDisplay:10.37,2013-03-10 19:29:00,
2013-03-10 15:34:00,32.9,31.4,29.84,North,0,255.3,0.0,94,0.00,CLR,,0.00,WeatherDisplay:10.37,2013-03-10 19:34:00,
2013-03-10 15:39:00,32.9,31.4,29.83,North,0,255.3,0.0,94,0.00,CLR,,0.00,WeatherDisplay:10.37,2013-03-10 19:39:00,
2013-03-10 15:44:00,32.9,31.4,29.85,North,0,255.3,0.0,94,0.00,CLR,,0.00,WeatherDisplay:10.37,2013-03-10 19:44:00,
2013-03-10 15:49:00,32.9,31.4,29.85,North,0,255.3,0.0,94,0.00,CLR,,0.00,WeatherDisplay:10.37,2013-03-10 19:49:00,
2013-03-10 15:54:00,32.9,31.4,29.84,North,0,255.3,0.0,94,0.00,CLR,,0.00,WeatherDisplay:10.37,2013-03-10 19:54:00,
2013-03-10 15:59:00,32.9,31.4,29.84,North,0,255.3,0.0,94,0.00,CLR,,0.00,WeatherDisplay:10.37,2013-03-10 19:59:00,
2013-03-10 16:04:00,32.9,31.4,29.84,North,0,255.3,0.0,94,0.00,CLR,,0.00,WeatherDisplay:10.37,2013-03-10 20:04:00,
2013-03-10 16:09:00,32.9,31.4,29.84,North,0,255.3,0.0,94,0.00,CLR,,0.00,WeatherDisplay:10.37,2013-03-10 20:09:00,
2013-03-10 16:14:00,32.9,31.4,29.84,North,0,255.3,0.0,94,0.00,CLR,,0.00,WeatherDisplay:10.37,2013-03-10 20:14:00,
2013-03-10 16:19:00,32.9,31.4,29.85,North,0,255.3,0.0,94,0.00,CLR,,0.00,WeatherDisplay:10.37,2013-03-10 20:19:00,
2013-03-10 16:24:00,32.9,31.4,29.84,North,0,255.3,0.0,94,0.00,CLR,,0.00,WeatherDisplay:10.37,2013-03-10 20:24:00,
2013-03-10 16:29:00,32.9,31.4,29.84,North,0,255.3,0.0,94,0.00,CLR,,0.00,WeatherDisplay:10.37,2013-03-10 20:29:00,
2013-03-10 16:34:00,32.9,31.4,29.82,North,0,255.3,0.0,94,0.00,CLR,,0.00,WeatherDisplay:10.37,2013-03-10 20:34:00,
2013-03-10 16:39:00,32.9,31.4,29.81,North,0,255.3,0.0,94,0.00,CLR,,0.00,WeatherDisplay:10.37,2013-03-10 20:39:00,
2013-03-10 16:44:00,32.9,31.4,29.83,North,0,255.3,0.0,94,0.00,CLR,,0.00,WeatherDisplay:10.37,2013-03-10 20:44:00,
2013-03-10 16:49:00,32.9,31.4,29.83,North,0,255.3,0.0,94,0.00,CLR,,0.00,WeatherDisplay:10.37,2013-03-10 20:49:00,
2013-03-10 16:54:00,32.9,31.4,29.84,North,0,255.3,0.0,94,0.00,CLR,,0.00,WeatherDisplay:10.37,2013-03-10 20:54:00,
2013-03-10 16:59:00,32.9,31.4,29.83,North,0,255.3,0.0,94,0.00,CLR,,0.00,WeatherDisplay:10.37,2013-03-10 20:59:00,
2013-03-10 17:04:00,32.9,31.4,29.84,North,0,255.3,0.0,94,0.00,CLR,,0.00,WeatherDisplay:10.37,2013-03-10 21:04:00,
2013-03-10 17:09:00,32.9,31.4,29.83,North,0,255.3,0.0,94,0.00,CLR,,0.00,WeatherDisplay:10.37,2013-03-10 21:09:00,
2013-03-10 17:14:00,32.9,31.4,29.83,North,0,255.3,0.0,94,0.00,CLR,,0.00,WeatherDisplay:10.37,2013-03-10 21:14:00,
2013-03-10 17:19:00,32.9,31.4,29.83,North,0,255.3,0.0,94,0.00,CLR,,0.00,WeatherDisplay:10.37,2013-03-10 21:19:00,
2013-03-10 17:24:00,32.9,31.4,29.82,North,0,255.3,0.0,94,0.00,CLR,,0.00,WeatherDisplay:10.37,2013-03-10 21:24:00,
2013-03-10 17:29:00,32.9,31.4,29.83,North,0,255.3,0.0,94,0.00,CLR,,0.00,WeatherDisplay:10.37,2013-03-10 21:29:00,
2013-03-10 17:34:00,32.9,31.4,29.82,North,0,255.3,0.0,94,0.00,CLR,,0.00,WeatherDisplay:10.37,2013-03-10 21:34:00,
2013-03-10 17:39:00,32.9,31.4,29.77,North,0,255.3,0.0,94,0.00,CLR,,0.00,WeatherDisplay:10.37,2013-03-10 21:39:00,
2013-03-10 17:44:00,32.9,31.4,29.80,North,0,255.3,0.0,94,0.00,CLR,,0.00,WeatherDisplay:10.37,2013-03-10 21:44:00,
2013-03-10 17:49:00,32.9,31.4,29.81,North,0,255.3,0.0,94,0.00,CLR,,0.00,WeatherDisplay:10.37,2013-03-10 21:49:00,
2013-03-10 17:54:00,32.9,31.4,29.82,North,0,255.3,0.0,94,0.00,CLR,,0.00,WeatherDisplay:10.37,2013-03-10 21:54:00,
2013-03-10 18:00:00,32.9,31.4,29.82,North,0,255.3,0.0,94,0.00,CLR,,0.00,WeatherDisplay:10.37,2013-03-10 22:00:00,
2013-03-10 18:05:00,32.9,31.4,29.83,North,0,255.3,0.0,94,0.00,CLR,,0.00,WeatherDisplay:10.37,2013-03-10 22:05:00,
2013-03-10 18:10:00,32.9,31.4,29.82,North,0,255.3,0.0,94,0.00,CLR,,0.00,WeatherDisplay:10.37,2013-03-10 22:10:00,
2013-03-10 18:15:00,32.9,31.4,29.82,North,0,255.3,0.0,94,0.00,CLR,,0.00,WeatherDisplay:10.37,2013-03-10 22:15:00,
2013-03-10 18:20:00,32.9,31.4,29.83,North,0,255.3,0.0,94,0.00,CLR,,0.00,WeatherDisplay:10.37,2013-03-10 22:20:00,
2013-03-10 18:25:00,32.9,31.4,29.83,North,0,255.3,0.0,94,0.00,CLR,,0.00,WeatherDisplay:10.37,2013-03-10 22:25:00,
2013-03-10 18:30:00,32.9,31.4,29.83,North,0,255.3,0.0,94,0.00,CLR,,0.00,WeatherDisplay:10.37,2013-03-10 22:30:00,
2013-03-10 18:35:00,32.9,31.4,29.84,North,0,255.3,0.0,94,0.00,CLR,,0.00,WeatherDisplay:10.37,2013-03-10 22:35:00,
2013-03-10 18:40:00,32.9,31.4,29.84,North,0,255.3,0.0,94,0.00,CLR,,0.00,WeatherDisplay:10.37,2013-03-10 22:40:00,
2013-03-10 18:45:00,32.9,31.4,29.83,North,0,255.3,0.0,94,0.00,CLR,,0.00,WeatherDisplay:10.37,2013-03-10 22:45:00,
2013-03-10 18:50:00,32.9,31.4,29.83,North,0,255.3,0.0,94,0.00,CLR,,0.00,WeatherDisplay:10.37,2013-03-10 22:50:00,
2013-03-10 18:55:00,32.9,31.4,29.84,North,0,255.3,0.0,94,0.00,CLR,,0.00,WeatherDisplay:10.37,2013-03-10 22:55:00,
2013-03-10 19:00:00,32.9,31.4,29.85,North,0,255.3,0.0,94,0.00,CLR,,0.00,WeatherDisplay:10.37,2013-03-10 23:00:00,
2013-03-10 19:05:00,32.9,31.4,29.83,North,0,255.3,0.0,94,0.00,CLR,,0.00,WeatherDisplay:10.37,2013-03-10 23:05:00,
2013-03-10 19:10:00,32.9,31.4,29.84,North,0,255.3,0.0,94,0.00,CLR,,0.00,WeatherDisplay:10.37,2013-03-10 23:10:00,
2013-03-10 19:15:00,32.9,31.4,29.83,North,0,255.3,0.0,94,0.00,CLR,,0.00,WeatherDisplay:10.37,2013-03-10 23:15:00,
2013-03-10 19:20:00,32.9,31.4,29.82,North,0,255.3,0.0,94,0.00,CLR,,0.00,WeatherDisplay:10.37,2013-03-10 23:20:00,
2013-03-10 19:25:00,32.9,31.4,29.81,North,0,255.3,0.0,94,0.00,CLR,,0.00,WeatherDisplay:10.37,2013-03-10 23:25:00,
2013-03-10 19:30:00,32.9,31.4,29.81,North,0,255.3,0.0,94,0.00,CLR,,0.00,WeatherDisplay:10.37,2013-03-10 23:30:00,
2013-03-10 19:35:00,32.9,31.4,29.81,North,0,255.3,0.0,94,0.00,CLR,,0.00,WeatherDisplay:10.37,2013-03-10 23:35:00,
2013-03-10 19:40:00,32.9,31.4,29.81,North,0,255.3,0.0,94,0.00,CLR,,0.00,WeatherDisplay:10.37,2013-03-10 23:40:00,
2013-03-10 19:45:00,32.9,31.4,29.81,North,0,255.3,0.0,94,0.00,CLR,,0.00,WeatherDisplay:10.37,2013-03-10 23:45:00,
2013-03-10 19:50:00,32.9,31.4,29.79,North,0,255.3,0.0,94,0.00,CLR,,0.00,WeatherDisplay:10.37,2013-03-10 23:50:00,
2013-03-10 19:55:00,32.9,31.4,29.79,North,0,255.3,0.0,94,0.00,CLR,,0.00,WeatherDisplay:10.37,2013-03-10 23:55:00,
2013-03-10 20:00:00,32.9,31.4,29.81,North,0,255.3,0.0,94,0.00,CLR,,0.00,WeatherDisplay:10.37,2013-03-11 00:00:00,
2013-03-10 20:05:00,32.9,31.4,29.81,North,0,255.3,0.0,94,0.00,CLR,,0.00,WeatherDisplay:10.37,2013-03-11 00:05:00,
2013-03-10 20:10:00,32.9,31.4,29.80,North,0,255.3,0.0,94,0.00,CLR,,0.00,WeatherDisplay:10.37,2013-03-11 00:10:00,
2013-03-10 20:15:00,32.9,31.4,29.81,North,0,255.3,0.0,94,0.00,CLR,,0.00,WeatherDisplay:10.37,2013-03-11 00:15:00,
2013-03-10 20:20:00,32.9,31.4,29.81,North,0,255.3,0.0,94,0.00,CLR,,0.00,WeatherDisplay:10.37,2013-03-11 00:20:00,
2013-03-10 20:25:00,32.9,31.4,29.78,North,0,255.3,0.0,94,0.00,CLR,,0.00,WeatherDisplay:10.37,2013-03-11 00:25:00,
2013-03-10 20:30:00,32.9,31.4,29.78,North,0,255.3,0.0,94,0.00,CLR,,0.00,WeatherDisplay:10.37,2013-03-11 00:30:00,
2013-03-10 20:35:00,32.9,31.4,29.80,North,0,255.3,0.0,94,0.00,CLR,,0.00,WeatherDisplay:10.37,2013-03-11 00:35:00,
2013-03-10 20:40:00,32.9,31.4,29.81,North,0,255.3,0.0,94,0.00,CLR,,0.00,WeatherDisplay:10.37,2013-03-11 00:40:00,
2013-03-10 20:45:00,32.9,31.4,29.82,North,0,255.3,0.0,94,0.00,CLR,,0.00,WeatherDisplay:10.37,2013-03-11 00:45:00,
2013-03-10 20:50:00,32.9,31.4,29.82,North,0,255.3,0.0,94,0.00,CLR,,0.00,WeatherDisplay:10.37,2013-03-11 00:50:00,
2013-03-10 20:55:00,32.9,31.4,29.80,North,0,255.3,0.0,94,0.00,CLR,,0.00,WeatherDisplay:10.37,2013-03-11 00:55:00,
2013-03-10 21:00:00,32.9,31.4,29.81,North,0,255.3,0.0,94,0.00,CLR,,0.00,WeatherDisplay:10.37,2013-03-11 01:00:00,
2013-03-10 21:05:00,32.9,31.4,29.81,North,0,255.3,0.0,94,0.00,CLR,,0.00,WeatherDisplay:10.37,2013-03-11 01:05:00,
2013-03-10 21:10:00,32.9,31.4,29.80,North,0,255.3,0.0,94,0.00,CLR,,0.00,WeatherDisplay:10.37,2013-03-11 01:10:00,
2013-03-10 21:15:00,32.9,31.4,29.79,North,0,255.3,0.0,94,0.00,CLR,,0.00,WeatherDisplay:10.37,2013-03-11 01:15:00,
2013-03-10 21:20:00,32.9,31.4,29.77,North,0,255.3,0.0,94,0.00,CLR,,0.00,WeatherDisplay:10.37,2013-03-11 01:20:00,
2013-03-10 21:25:00,32.9,31.4,29.78,North,0,255.3,0.0,94,0.00,CLR,,0.00,WeatherDisplay:10.37,2013-03-11 01:25:00,
2013-03-10 21:30:00,32.9,31.4,29.78,North,0,255.3,0.0,94,0.00,CLR,,0.00,WeatherDisplay:10.37,2013-03-11 01:30:00,
2013-03-10 21:35:00,32.9,31.4,29.77,North,0,255.3,0.0,94,0.00,CLR,,0.00,WeatherDisplay:10.37,2013-03-11 01:35:00,
2013-03-10 21:40:00,32.9,31.4,29.77,North,0,255.3,0.0,94,0.00,CLR,,0.00,WeatherDisplay:10.37,2013-03-11 01:40:00,
2013-03-10 21:45:00,32.9,31.4,29.78,North,0,255.3,0.0,94,0.00,CLR,,0.00,WeatherDisplay:10.37,2013-03-11 01:45:00,
2013-03-10 21:50:00,32.9,31.4,29.78,North,0,255.3,0.0,94,0.00,CLR,,0.00,WeatherDisplay:10.37,2013-03-11 01:50:00,
2013-03-10 21:55:00,32.9,31.4,29.78,North,0,255.3,0.0,94,0.00,CLR,,0.00,WeatherDisplay:10.37,2013-03-11 01:55:00,
2013-03-10 22:00:00,32.9,31.4,29.78,North,0,255.3,0.0,94,0.00,CLR,,0.00,WeatherDisplay:10.37,2013-03-11 02:00:00,
2013-03-10 22:05:00,32.9,31.4,29.78,North,0,255.3,0.0,94,0.00,CLR,,0.00,WeatherDisplay:10.37,2013-03-11 02:05:00,
2013-03-10 22:10:00,32.9,31.4,29.78,North,0,255.3,0.0,94,0.00,CLR,,0.00,WeatherDisplay:10.37,2013-03-11 02:10:00,
2013-03-10 22:15:00,32.9,31.4,29.79,North,0,255.3,0.0,94,0.00,CLR,,0.00,WeatherDisplay:10.37,2013-03-11 02:15:00,
2013-03-10 22:20:00,32.9,31.4,29.80,North,0,255.3,0.0,94,0.00,CLR,,0.00,WeatherDisplay:10.37,2013-03-11 02:20:00,
2013-03-10 22:25:00,32.9,31.4,29.80,North,0,255.3,0.0,94,0.00,CLR,,0.00,WeatherDisplay:10.37,2013-03-11 02:25:00,
2013-03-10 22:30:00,32.9,31.4,29.79,North,0,255.3,0.0,94,0.00,CLR,,0.00,WeatherDisplay:10.37,2013-03-11 02:30:00,
2013-03-10 22:35:00,32.9,31.4,29.80,North,0,255.3,0.0,94,0.00,CLR,,0.00,WeatherDisplay:10.37,2013-03-11 02:35:00,
2013-03-10 22:40:00,32.9,31.4,29.80,North,0,255.3,0.0,94,0.00,CLR,,0.00,WeatherDisplay:10.37,2013-03-11 02:40:00,
2013-03-10 22:45:00,32.9,31.4,29.80,North,0,255.3,0.0,94,0.00,CLR,,0.00,WeatherDisplay:10.37,2013-03-11 02:45:00,
2013-03-10 22:50:00,32.9,31.4,29.79,North,0,255.3,0.0,94,0.00,CLR,,0.00,WeatherDisplay:10.37,2013-03-11 02:50:00,
2013-03-10 22:55:00,32.9,31.4,29.79,North,0,255.3,0.0,94,0.00,CLR,,0.00,WeatherDisplay:10.37,2013-03-11 02:55:00,
2013-03-10 23:00:00,32.9,31.4,29.78,North,0,255.3,0.0,94,0.00,CLR,,0.00,WeatherDisplay:10.37,2013-03-11 03:00:00,
2013-03-10 23:05:00,32.9,31.4,29.78,North,0,255.3,0.0,94,0.00,CLR,,0.00,WeatherDisplay:10.37,2013-03-11 03:05:00,
2013-03-10 23:10:00,32.9,31.4,29.78,North,0,255.3,0.0,94,0.00,CLR,,0.00,WeatherDisplay:10.37,2013-03-11 03:10:00,
2013-03-10 23:15:00,32.9,31.4,29.78,North,0,255.3,0.0,94,0.00,CLR,,0.00,WeatherDisplay:10.37,2013-03-11 03:15:00,
2013-03-10 23:20:00,32.9,31.4,29.76,North,0,255.3,0.0,94,0.00,CLR,,0.00,WeatherDisplay:10.37,2013-03-11 03:20:00,
2013-03-10 23:25:00,32.9,31.4,29.76,North,0,255.3,0.0,94,0.00,CLR,,0.00,WeatherDisplay:10.37,2013-03-11 03:25:00,
2013-03-10 23:30:00,32.9,31.4,29.76,North,0,255.3,0.0,94,0.00,CLR,,0.00,WeatherDisplay:10.37,2013-03-11 03:30:00,
2013-03-10 23:35:00,32.9,31.4,29.77,North,0,255.3,0.0,94,0.00,CLR,,0.00,WeatherDisplay:10.37,2013-03-11 03:35:00,
2013-03-10 23:40:00,32.9,31.4,29.77,North,0,255.3,0.0,94,0.00,CLR,,0.00,WeatherDisplay:10.37,2013-03-11 03:40:00,
2013-03-10 23:45:00,32.9,31.4,29.76,North,0,255.3,0.0,94,0.00,CLR,,0.00,WeatherDisplay:10.37,2013-03-11 03:45:00,
2013-03-10 23:50:00,32.9,31.4,29.76,North,0,255.3,0.0,94,0.00,CLR,,0.00,WeatherDisplay:10.37,2013-03-11 03:50:00,
2013-03-10 23:55:00,32.9,31.4,29.76,North,0,255.3,0.0,94,0.00,CLR,,0.00,WeatherDisplay:10.37,2013-03-11 03:55:00,